Regional Weather Roundup
Issued by NWS

Home | Current Version | Previous Version | Graphics & Text | Print | Product List | Glossary On
Versions: 1 2 3 4 5 6 7 8 9 10 11 12 13 14 15 16 17 18 19 20 21 22 23 24 25 26 27 28 29 30 31 32 33 34 35 36 37 38 39 40 41 42 43 44 45 46 47 48 49 50
931
ASUS43 KMKX 302111
RWRWI

WISCONSIN REGIONAL WEATHER ROUNDUP
NATIONAL WEATHER SERVICE MILWAUKEE/SULLIVAN WI
400 PM CDT SAT JUL 30 2016

NOTE: "FAIR" INDICATES FEW OR NO CLOUDS BELOW 12,000 FEET WITH NO
SIGNIFICANT WEATHER AND/OR OBSTRUCTIONS TO VISIBILITY.

WIZ001-002-006>008-014>016-023>028-302200-
NORTHWEST WISCONSIN

CITY           SKY/WX    TMP DP  RH WIND       PRES   REMARKS
SUPERIOR ARPT  CLOUDY    69  61  76 E7        30.03F
ASHLAND        SUNNY     78  63  59 N13       30.04S HX  80
HAYWARD        CLOUDY    78  55  44 SE7       30.04F
SIREN          SUNNY     81  55  41 SE8       30.03S HX  80
CUMBERLAND     MOSUNNY   77  55  47 SE9       30.03F
RICE LAKE      MOSUNNY   78  58  49 E6        30.04F
CHETEK         CLOUDY    78  60  52 MISG      30.03F HX  80
LADYSMITH      SUNNY     78  52  39 SE5       30.05F
EAU CLAIRE     MOSUNNY   80  61  52 E9        30.01F HX  81
MENOMONIE      MOSUNNY   85  59  41 SE6       30.02F HX  84
NEW RICHMOND   PTSUNNY   80  58  47 E7        30.02S HX  81
OSCEOLA        CLOUDY    78  62  57 NE3       30.03F
$$

WIZ003>005-009-010-017-018-302200-
NORTH CENTRAL WISCONSIN

CITY           SKY/WX    TMP DP  RH WIND       PRES   REMARKS
MANITOWISH WTR CLOUDY    76  54  46 E5        30.06F
ARBOR VITAE    SUNNY     77  53  42 SE7       30.07S
WOODRUFF       SUNNY     77  53  42 SE7       30.07S
RHINELANDER    MOSUNNY   77  53  43 E9        30.08F
EAGLE RIVER    MOSUNNY   76  47  35 S5        30.07F
LAND O LAKES   MOSUNNY   76  48  37 CALM      30.09S
PHILLIPS       SUNNY     77  56  48 SE5       30.05S
TOMAHAWK       MOSUNNY   74  58  57 SE3       30.07F
MEDFORD        MOSUNNY   76  58  53 E5        30.05F
MERRILL        MOSUNNY   74  58  56 E9        30.07S
$$

WIZ029-030-035-036-043>047-302200-
CENTRAL WISCONSIN

CITY           SKY/WX    TMP DP  RH WIND       PRES   REMARKS
WAUSAU         MOSUNNY   75  55  49 E6        30.04F
MOSINEE        PTSUNNY   75  55  50 E8        30.07S
MARSHFIELD     MOSUNNY   79  60  52 S7        30.04F HX  80
STEVENS POINT  SUNNY     76  56  50 SE8       30.06S
WAUPACA        SUNNY     82  56  40 E10       30.05F HX  81
WAUTOMA        PTSUNNY   78  61  55 NE10      30.03F HX  80
WISC RAPIDS    PTSUNNY   80  56  43 E8        30.05F HX  80
CAMP DOUGLAS   CLOUDY    79  64  59 E8        30.02F HX  80
$$

WIZ011>013-019>022-031-037>040-048>050-302200-
NORTHEAST WISCONSIN

CITY           SKY/WX    TMP DP  RH WIND       PRES   REMARKS
ANTIGO         SUNNY     74  58  56 CALM      30.08F
SHAWANO        SUNNY     78  51  38 E10G16    30.07S
OCONTO         SUNNY     75  54  46 NE7       30.06S
STURGEON BAY   SUNNY     76  55  48 NE9       30.06F
GREEN BAY      SUNNY     76  57  51 NE12      30.05S
MANITOWOC      SUNNY     74  55  51 NE8       30.05S
APPLETON       PTSUNNY   75  45  33 E12       30.04S
CLINTONVILLE   SUNNY     77  48  36 NE6       30.05F
OSHKOSH        SUNNY     76  56  49 E8        30.03F
$$

WIZ032>034-041-042-053>061-302200-
SOUTHWEST WISCONSIN

CITY           SKY/WX    TMP DP  RH WIND       PRES   REMARKS
LA CROSSE      MOSUNNY   81  64  56 S7        29.99F HX  82
SPARTA         MOSUNNY   79  62  57 SE6       30.02S HX  80
VIROQUA        PTSUNNY   78  62  58 SE6       30.03F HX  80
BOSCOBEL       PTSUNNY   80  62  54 E5        30.00F HX  81
PRAIRIE DU CHI PTSUNNY   79  63  58 NE8       29.99F HX  80
PLATTEVILLE    MOSUNNY   79  65  62 NE10      30.01S HX  81
$$

WIZ056-057-062-063-064-067-068-302200-
SOUTH CENTRAL WISCONSIN

CITY           SKY/WX    TMP DP  RH WIND       PRES   REMARKS
REEDSBURG      MOSUNNY   78  63  58 E5        30.01F HX  80
BARABOO/DELLS  PTSUNNY   77  60  56 E8        30.03S
LONE ROCK      MOSUNNY   79  62  56 NE10      30.01F HX  80
MINERAL POINT  SUNNY     81  61  50 E7        30.02F HX  81
MADISON        PTSUNNY   77  60  55 E7        30.01S
MIDDLETON      MOSUNNY   80  62  53 NE8       30.02S HX  81
WATERTOWN      MOSUNNY   78  60  52 NE8       30.01S HX  80
MONROE         MOSUNNY   79  63  57 NE8       30.00F HX  80
JANESVILLE     MOSUNNY   82  57  42 NE9       29.99  HX  82
$$

WIZ051-052-058>065-066-070>072-302200-
SOUTHEAST WISCONSIN

CITY           SKY/WX    TMP DP  RH WIND       PRES   REMARKS
MILWAUKEE      PTSUNNY   74  62  66 N14       30.01F
WAUKESHA       MOSUNNY   73  55  53 NE12      30.03S
MILWAUKEE/TIMM SUNNY     75  54  46 NE10      30.03S
RACINE         PTSUNNY   74  62  66 NE12      30.03S
BURLINGTON     MOSUNNY   77  59  54 NE8       30.01S
KENOSHA        MOSUNNY   76  62  62 NE10G16   30.01F
FOND DU LAC    MOSUNNY   79  55  43 NE9       30.03F
SHEBOYGAN      SUNNY     74  57  55 NE14      30.04F
WEST BEND      MOSUNNY   73  55  53 NE9       30.03S
JUNEAU         SUNNY     77  56  49 N9        30.04S
$$

LSZ147-162-302200-
LAKE SUPERIOR

STATION/POSITION TIME  TEMP    WIND        PRES    WAVE
                       AIR SEA DIR/SP/G            HT/PER
                 (UTC) (F)     (DEG/KT/KT) (MB)    (FT/S)
W MID LAKE BUOY  2050   66 65   80/  4/  4 1017.2F   0
DEVILS ISLAND    2100   67      30/  6/  6 1017.3F
PORT WING        2000   65      30/ 12/ 13 1017.6S
SAXON HARBOR     2040   71      50/ 11/ 13 1016.9F
$$

LMZ867-665-643>646-302200-
LAKE MICHIGAN

STATION/POSITION TIME  TEMP    WIND        PRES    WAVE
                       AIR SEA DIR/SP/G            HT/PER
                 (UTC) (F)     (DEG/KT/KT) (MB)    (FT/S)
CHAMBERS ISLAND  2000   72      10/  9/ 12 1018.3R
S GREEN BAY BUOY 2030   72 72   60/ 12/ 14 1017.3F
N MID LAKE BUOY  2050   71 70   10/ 10/ 12 1017.1F   1/ 3
NORTHPORT PIER   2000   76      70/  8/ 12 1017.9F
SISTER BAY       2006   81     100/ 11/ 16   N/A
ALGOMA LAKESHORE 2043           80/ 15/ 21   N/A
KEWAUNEE LAKESHO 2000   72      30/  7/ 13 1017.3S
SHEBOYGAN LAKESH 2100   65     360/ 10/ 11 1017.2F
PORT WASHINGTON  2000   72      50/ 10/ 12 1017.6
ATWATER BUOY     2000   67 65   20/ 10/ 12 1018.4F
MILWAUKEE LAKESH 2010   68      30/ 13/ 14   N/A
S MID LAKE BUOY  2050   71 74   40/ 10/ 12 1015.2F   1/ 4
KENOSHA   LAKESH 2100   70      30/ 12/ 13 1015.9S
$$

TC  - TEMPERATURE IN CELSIUS
VSB - VISIBILITY IN STATUTE MILES
WCI - WIND CHILL INDEX
HX  - HEAT INDEX





USA.gov is the U.S. government's official web portal to all federal, state and local government web resources and services.